Satellite: NOAA-18
Catalog number: 28654
Epoch time:      08066.45576498
Element set:     342
Inclination:      098.8591 deg
RA of node:       008.6982 deg
Eccentricity:    0.0013522
Arg of perigee:   243.2556 deg
Mean anomaly:     116.7212 deg
Mean motion:   14.11144136 rev/day
Decay rate:       3.64e-06 rev/day^2
Epoch rev:           14398
Checksum:              318

/EX
SB KEPS @ AMSAT  $ORB08066.M
Orbital Elements  08066.MISC

HR AMSAT ORBITAL ELEMENTS FOR MANNED AND MISCELLANEOUS SATELLITES
FROM WA5QGD FORT WORTH,TX March 6, 2008
Send Subscribe/unsubscribe to KEPS at 
http://www.amsat.org/mailman/listinfo/keps
BID: ORB08066.M
TO ALL RADIO AMATEURS BT

Satellite: HUBBLE
Catalog number: 20580
Epoch time:      08066.90373099
Element set:      87
Inclination:      028.4687 deg
RA of node:       270.3312 deg
Eccentricity:    0.0003352
Arg of perigee:   018.6375 deg
Mean anomaly:     341.4336 deg
Mean motion:   15.00345764 rev/day
Decay rate:       4.05e-06 rev/day^2
Epoch rev:           77960
Checksum:              292

Satellite: UARS
Catalog number: 21701
Epoch time:      08066.57891645
Element set:     307
Inclination:      056.9756 deg
RA of node:       248.8242 deg
Eccentricity:    0.0084228
Arg of perigee:   346.1940 deg
Mean anomaly:     013.6813 deg
Mean motion:   15.50781442 rev/day
Decay rate:      3.334e-05 rev/day^2
Epoch rev:           90657
Checksum:              312

Satellite: PO-34
Catalog number: 25520
Epoch time:      08065.59217660
Element set:     945
Inclination:      028.4592 deg
RA of node:       152.3157 deg
Eccentricity:    0.0005907
Arg of perigee:   231.4714 deg
Mean anomaly:     128.5353 deg
Mean motion:   15.17143586 rev/day
Decay rate:       4.76e-06 rev/day^2
Epoch rev:           51741
Checksum:              304

Satellite: ISS
Catalog number: 25544
Epoch time:      08066.86732796
Element set:      59
Inclination:      051.6381 deg
RA of node:       183.8128 deg
Eccentricity:    0.0001881
Arg of perigee:   208.1489 deg
Mean anomaly:     246.9070 deg
Mean motion:   15.75998980 rev/day
Decay rate:     1.9441e-04 rev/day^2
Epoch rev:           53238
Checksum:              343

Satellite: OO-38
Catalog number: 26063
Epoch time:      08066.08965000
Element set:     152
Inclination:      100.2038 deg
RA of node:       122.0386 deg
Eccentricity:    0.0037162
Arg of perigee:   139.6221 deg
Mean anomaly:     220.7736 deg
Mean motion:   14.35828752 rev/day
Decay rate:       -2.7e-07 rev/day^2
Epoch rev:           42477
Checksum:              280

Satellite: UWE-1
Catalog number: 28892
Epoch time:      08066.25629701
Element set:     992
Inclination:      098.1085 deg
RA of node:       322.2954 deg
Eccentricity:    0.0017928
Arg of perigee:   014.3359 deg
Mean anomaly:     345.8334 deg
Mean motion:   14.59599140 rev/day
Decay rate:        4.7e-07 rev/day^2
Epoch rev:           12558
Checksum:              332

Satellite: CO-58
Catalog number: 28895
Epoch time:      08066.36420256
Element set:     964
Inclination:      098.1112 deg
RA of node:       322.7169 deg
Eccentricity:    0.0018344
Arg of perigee:   014.1332 deg
Mean anomaly:     346.0367 deg
Mean motion:   14.59642327 rev/day
Decay rate:       2.79e-06 rev/day^2
Epoch rev:           12548
Checksum:              318

Satellite: NCUBE2
Catalog number: 28897
Epoch time:      08066.61483709
Element set:     495
Inclination:      098.1073 deg
RA of node:       322.8967 deg
Eccentricity:    0.0017974
Arg of perigee:   013.9890 deg
Mean anomaly:     346.1809 deg
Mean motion:   14.59810211 rev/day
Decay rate:       1.41e-06 rev/day^2
Epoch rev:           11780
Checksum:              330

Satellite: FCAL
Catalog number: 29667
Epoch time:      08066.64199730
Element set:     808
Inclination:      051.6316 deg
RA of node:       140.0547 deg
Eccentricity:    0.0008126
Arg of perigee:   320.7714 deg
Mean anomaly:     039.2735 deg
Mean motion:   16.04104508 rev/day
Decay rate:     5.7174e-04 rev/day^2
Epoch rev:            7003
Checksum:              288

Satellite: FALCON
Catalog number: 30776
Epoch time:      08066.21019218
Element set:     262
Inclination:      035.4328 deg
RA of node:       057.9878 deg
Eccentricity:    0.0000868
Arg of perigee:   232.7718 deg
Mean anomaly:     127.2919 deg
Mean motion:   15.02900780 rev/day
Decay rate:       6.14e-06 rev/day^2
Epoch rev:            5464
Checksum:              300

Satellite: MAST
Catalog number: 31126
Epoch time:      08066.18142731
Element set:     271
Inclination:      098.0491 deg
RA of node:       134.6834 deg
Eccentricity:    0.0093789
Arg of perigee:   291.5023 deg
Mean anomaly:     067.6210 deg
Mean motion:   14.53403202 rev/day
Decay rate:        7.0e-08 rev/day^2
Epoch rev:            4705
Checksum:              268

Satellite: CAPE1
Catalog number: 31130
Epoch time:      08066.16633989
Element set:     251
Inclination:      098.0513 deg
RA of node:       133.9155 deg
Eccentricity:    0.0101641
Arg of perigee:   293.5156 deg
Mean anomaly:     065.5399 deg
Mean motion:   14.51935940 rev/day
Decay rate:       -4.7e-07 rev/day^2
Epoch rev:            4677
Checksum:              303

/EX



_______________________________________________
Via the Keps mailing list courtesy of AMSAT-NA
http://amsat.org/mailman/listinfo/keps

--- ViaMAIL!/WC v1.60d
 * Origin: Chowdanet (401-724-4410) telnet://chowdanet.com  (1:323/120)